Tracking 29781 objects as of 14-Oct-2024
HD Live streaming from Space Station
objects crossing your sky now

SCOUT G-1 DEB

Track SCOUT G-1 DEB now!
10-day predictions


NORAD ID: 14222
Int'l Code: 1983-063C
Perigee: 658.3 km
Apogee: 686.1 km
Inclination: 82.4 °
Period: 98.0 minutes
Semi major axis: 7043 km
RCS: 0.0039 m2 (small)
Launch date: June 27, 1983
Source: United States (US)
Launch site: AIR FORCE WESTERN TEST RANGE (AFWTR)

Note: This is SATELLITE DEBRIS
Your satellite tracking list
Your tracking list is empty




NASA's NSSDC Master Catalog

Two Line Element Set (TLE):
1 14222U 83063C   24288.06028639  .00007048  00000-0  12021-2 0  9996
2 14222  82.3722 215.1843 0019682  47.5618 312.7249 14.68753798187415
Source of the keplerian elements: AFSPC